Flag for Ukraine Weather past 2 weeks in Chernobyl, Ukraine

Now
18 °F

Overcast.


Feels Like: 6 °F
Forecast: 5 / 15 °F
Wind: 10 mph from North

Location: Hostomel

Current Time: Dec 29, 2014 at 2:29:20 PM

Latest Report: Dec 29, 2014 at 2:00 PM


Visibility: N/A

Pressure: 29.95 "Hg

Humidity: 93%

Dew point: 16 °F

Location of ChernobylLocation

Historic Weather in Chernobyl — Graph

°F

Chernobyl temperature yesterday

Maximum temperature yesterday: 23 °F (at 2:00 PM)
Minimum temperature yesterday: 14 °F (at 7:00 AM)
Average temperature yesterday: 17 °F

Past Weeks' High & Low Weather Summary

 TemperatureHumidityPressure
High48 °F (Dec 23, 1:00 PM)100% (Dec 15, 12:00 AM)30.21 "Hg (Dec 15, 12:00 AM)
Low12 °F (Dec 29, 6:00 AM)58% (Dec 28, 2:00 PM)29.45 "Hg (Dec 23, 3:00 AM)
Average34 °F90%29.88 "Hg
* Reported Dec 14 1:00 PM — Dec 29 1:30 PM, Chernobyl, Weather by CustomWeather, © 2014

Note: Actual official high and low records may vary slightly from our data, if they occured in-between our weather recording intervals... More about our weather records

Advertising

Chernobyl weather history for previous 24 hours

 ConditionsComfort  
Time TempWeatherWind HumidityBarometerVisibility
1:30 PM
Dec 29
18 °FMore clouds than sun.8 mph93%29.95 "HgN/A
1:00 PM18 °FMostly cloudy.6 mph93%29.95 "HgN/A
12:30 PM16 °FMostly cloudy.8 mph100%29.95 "HgN/A
12:00 PM16 °FMostly cloudy.8 mph100%29.98 "HgN/A
11:30 AM16 °FLight snow. Mostly cloudy.6 mph93%29.98 "HgN/A
11:00 AM16 °FLight snow. Mostly cloudy.8 mph93%29.98 "HgN/A
10:30 AM14 °FLight snow. Mostly cloudy.6 mph100%29.98 "HgN/A
10:00 AM14 °FLight snow. Mostly cloudy.6 mph100%30.01 "Hg6 mi
9:30 AM14 °FLight snow. Mostly cloudy.6 mph100%29.98 "Hg6 mi
9:00 AM14 °FLow clouds.6 mph100%29.98 "HgN/A
8:00 AM14 °FLow clouds.8 mph100%30.01 "HgN/A
7:00 AM14 °FLow clouds.3 mph92%29.98 "HgN/A
6:00 AM12 °FCold.6 mph100%29.98 "Hg5 mi
5:00 AM16 °FCold.8 mph93%29.98 "HgN/A
4:00 AM16 °FCold.6 mph100%30.01 "Hg6 mi
3:00 AM16 °FCold.3 mph93%30.01 "HgN/A
2:00 AM16 °FCold.3 mph93%30.01 "HgN/A
1:00 AM16 °FCold.6 mph93%29.98 "HgN/A
12:00 AM16 °FCold.3 mph93%30.01 "HgN/A
11:00 PM
Dec 28
16 °FCold.3 mph86%30.01 "HgN/A
10:00 PM16 °FCold.6 mph86%30.01 "HgN/A
9:00 PM16 °FCold.8 mph86%30.01 "HgN/A
8:00 PM16 °FCold.6 mph86%29.98 "HgN/A
7:00 PM16 °FCold.3 mph86%29.98 "HgN/A
6:00 PM18 °FCold.6 mph79%29.95 "HgN/A
5:00 PM18 °FCold.6 mph73%29.95 "HgN/A
4:00 PM19 °FCold.3 mph68%29.92 "HgN/A
3:00 PM21 °FCold.8 mph68%29.92 "HgN/A
2:00 PM23 °FCold.8 mph58%29.89 "HgN/A
Weather by CustomWeather, © 2014

See weather overviewHow to use our weather pages